Vertical_Velocity
-3 0 -0 -2 -1 -1 0 -1 -1 -2 -3 0 -0 -0 -1 -0 -1 1 -0 -2 -2 -0 -0 -1 -1 -1 1 -1 -2 -1 -3 0 3
-2 -1 -1 -2 -3 -1 -3 -1 -1 0 -2 -2 -1 -0 -2 -1 -2 -1 -2 -1 -0 0 1 1 0 -2 1 -0 -0 -2 1 -1 -1
0 -0 1 0 -4 -2 -3 -0 -2 -1 -0 -1 -1 -0 -0 -1 0 -1 -2 -1 -1 0 0 -1 -1 -0 -2 -0 -1 -2 0 1 -1
1 -1 -1 4 -0 -5 -3 -2 -2 -2 0 -1 -2 -0 0 1 1 1 -0 -1 -1 -2 0 -2 -1 -1 -0 -0 -1 0 1 -3 -1
-0 -0 1 1 3 -2 -5 0 -3 -2 0 -0 -1 0 0 1 0 -1 -0 1 -0 1 -1 1 0 -2 -0 0 -0 -1 -2 -2 -5
-1 -0 0 1 3 2 0 -3 -1 -3 -1 0 -2 -1 -0 1 1 -0 -2 -1 -2 -3 -3 -2 -0 -1 -0 -0 -2 -4 -2 -1 -1
-3 1 -1 2 -2 3 2 0 -1 -2 -1 -1 -0 1 2 -1 1 1 -0 -1 0 -2 -2 -2 -0 -0 1 -1 -2 -3 -2 2 1
-1 -3 -1 -2 2 0 0 -2 -2 -0 -1 0 -0 -1 -0 0 0 1 -1 -0 -0 1 -1 -1 -1 -1 -1 0 -0 0 0 -0 -1
-3 -2 -2 -2 -1 3 -1 0 -0 -2 -3 -1 -0 0 1 1 0 1 -0 -2 -0 0 2 -0 2 -1 -1 -0 -1 -1 1 -2 -0
-3 -3 -1 -0 -3 -0 1 -1 1 -0 -2 -2 -1 -2 -0 1 -1 -0 0 1 -1 -0 0 1 1 -1 -2 -1 -2 -0 1 1 -1
3 -5 -2 1 -3 1 2 2 -1 0 -1 -2 -0 -1 -0 -0 0 -1 -0 -0 -1 0 -1 -0 -0 1 -1 0 0 -0 2 -1 0
1 3 -3 -1 0 -1 2 1 0 1 -1 -1 -1 -0 -1 -1 1 0 -0 1 -1 2 -0 -2 -0 1 -1 -1 -0 -2 0 0 -0
2 4 -3 -0 0 1 -1 1 0 0 0 -0 -1 -2 -1 -2 0 -1 -1 3 2 -2 1 -2 1 7 10 14 14 11 5 1 1
-0 4 3 0 -1 -2 -0 -2 3 1 -1 -0 0 0 -1 1 0 -0 -0 2 -0 1 -0 -1 -2 -2 -2 1 5 4 2 2 4
-1 2 9 5 -0 1 0 2 0 1 1 2 4 1 -0 -0 0 -2 -0 0 -2 1 4 0 -1 1 -1 1 -0 3 2 -2 -2
0 -3 6 5 -1 -2 4 3 3 0 1 1 0 2 3 1 -1 -2 1 0 -1 1 -1 1 1 -2 -1 -1 -0 -3 -1 -1 -2
2 4 -3 3 4 1 -0 0 -4 3 0 -2 2 1 -0 1 1 -1 -1 2 -0 -1 -2 -1 2 -2 -3 -2 0 1 -1 -1 1
9 2 4 -0 10 -2 -2 -1 -1 -4 -0 3 -6 -3 -5 1 -0 1 -2 1 -0 -0 -2 -1 -1 -1 -1 1 -3 -2 -0 -3 2
2 10 -6 4 -4 5 -4 2 -2 3 -4 0 2 1 1 -3 -1 -0 -2 1 1 -1 0 2 -1 1 -5 1 -3 0 -3 -4 -2
-2 -16 13 -2 3 6 1 0 -2 -0 1 -3 -3 1 2 2 -3 -4 -2 -1 -1 1 -3 1 -0 1 0 1 -2 -1 -0 -3 -3
Height
1543 1546 1547 1549 1552 1553 1554 1555 1557 1558 1559 1560 1560 1561 1561 1561 1561 1561 1560 1560 1561 1560 1560 1559 1559 1558 1558 1558 1557 1556 1555 1555 1554
1544 1545 1548 1550 1552 1554 1556 1557 1558 1560 1561 1562 1562 1563 1563 1563 1563 1563 1563 1563 1563 1562 1562 1562 1561 1560 1560 1560 1559 1558 1558 1557 1556
1545 1547 1548 1550 1552 1555 1557 1559 1560 1562 1563 1564 1564 1565 1565 1565 1565 1565 1564 1565 1565 1565 1565 1564 1564 1563 1562 1561 1561 1560 1560 1559 1558
1546 1548 1550 1552 1552 1555 1558 1560 1561 1563 1564 1565 1566 1567 1567 1567 1567 1566 1566 1566 1566 1567 1566 1566 1565 1565 1564 1564 1563 1562 1562 1561 1560
1546 1549 1551 1553 1554 1555 1558 1561 1562 1564 1566 1566 1567 1568 1569 1569 1569 1569 1569 1569 1569 1569 1568 1568 1568 1567 1566 1565 1565 1564 1564 1562 1561
1546 1549 1552 1553 1555 1557 1559 1561 1563 1565 1567 1568 1569 1570 1571 1571 1571 1571 1570 1571 1571 1571 1571 1571 1570 1569 1568 1568 1567 1566 1565 1564 1563
1546 1549 1552 1554 1556 1558 1560 1561 1563 1565 1567 1569 1570 1571 1572 1572 1573 1572 1572 1572 1573 1572 1573 1572 1572 1571 1571 1570 1568 1567 1567 1566 1565
1543 1547 1550 1553 1555 1557 1559 1561 1563 1565 1568 1570 1571 1572 1573 1573 1574 1574 1574 1574 1574 1574 1574 1573 1573 1573 1572 1571 1570 1569 1568 1568 1567
1541 1545 1548 1551 1554 1557 1559 1562 1563 1565 1567 1570 1572 1573 1574 1574 1575 1575 1575 1575 1575 1575 1575 1574 1574 1573 1573 1572 1571 1570 1570 1569 1568
1537 1543 1546 1550 1553 1556 1558 1561 1564 1565 1566 1569 1571 1573 1574 1574 1575 1576 1576 1576 1576 1576 1576 1575 1575 1574 1574 1574 1573 1572 1571 1569 1569
1534 1538 1543 1547 1551 1555 1558 1560 1563 1565 1566 1568 1571 1572 1574 1575 1575 1576 1576 1576 1575 1575 1576 1576 1575 1575 1575 1574 1574 1573 1572 1570 1570
1532 1534 1539 1544 1548 1553 1557 1560 1562 1564 1566 1568 1570 1572 1574 1575 1575 1575 1575 1575 1575 1575 1575 1575 1575 1575 1574 1574 1573 1573 1572 1572 1570
1529 1533 1536 1542 1546 1549 1554 1557 1560 1563 1565 1567 1568 1570 1572 1573 1574 1575 1575 1575 1575 1575 1575 1574 1574 1574 1574 1574 1573 1572 1571 1571 1570
1528 1531 1532 1537 1541 1546 1550 1554 1558 1560 1563 1566 1568 1569 1570 1572 1573 1574 1574 1574 1574 1574 1573 1573 1573 1573 1572 1572 1572 1571 1570 1570 1569
1524 1528 1531 1533 1537 1542 1546 1551 1555 1559 1562 1565 1568 1568 1569 1570 1570 1572 1572 1573 1573 1572 1572 1571 1571 1571 1572 1571 1570 1570 1569 1569 1569
1518 1522 1528 1531 1532 1537 1543 1547 1552 1555 1559 1562 1566 1567 1568 1568 1568 1569 1570 1570 1570 1570 1570 1570 1569 1569 1569 1569 1568 1568 1568 1568 1566
1511 1514 1521 1526 1529 1533 1538 1543 1547 1552 1555 1558 1563 1565 1567 1566 1566 1566 1568 1567 1568 1567 1568 1568 1566 1566 1566 1566 1566 1566 1566 1565 1565
1505 1509 1516 1522 1527 1528 1534 1539 1543 1546 1551 1554 1558 1560 1560 1561 1563 1564 1565 1565 1565 1566 1566 1565 1564 1563 1564 1564 1564 1564 1563 1563 1563
1499 1504 1510 1515 1525 1526 1530 1535 1538 1543 1546 1550 1553 1555 1556 1557 1559 1561 1562 1563 1563 1563 1563 1562 1561 1561 1561 1561 1561 1561 1560 1560 1561
1492 1495 1505 1512 1519 1522 1527 1531 1534 1538 1542 1545 1548 1551 1553 1554 1555 1556 1559 1560 1560 1561 1560 1560 1559 1557 1558 1558 1557 1558 1558 1558 1558